| time (UTC) | temp F | wind direction | speed MPH | gust MPH | rain 1hr in | rain 24hr in | rain mn in | humidity % | barometer mb |
| 20260507184549 | 70 | 269 | 7.0 | 12.0 | 0.00 | 0.00 | 0.00 | 41 | 1016.4 |
| 20260507183047 | 69 | 306 | 3.0 | 10.0 | 0.00 | 0.00 | 0.00 | 42 | 1016.5 |
| 20260507181543 | 69 | 292 | 4.0 | 12.0 | 0.00 | 0.00 | 0.00 | 44 | 1016.8 |
| 20260507180041 | 68 | 246 | 3.0 | 11.0 | 0.00 | 0.00 | 0.00 | 44 | 1017.0 |
| 20260507174540 | 67 | 300 | 1.0 | 11.0 | 0.00 | 0.00 | 0.00 | 45 | 1017.3 |
| 20260507173043 | 68 | 157 | 3.0 | 10.0 | 0.00 | 0.00 | 0.00 | 49 | 1017.5 |
| 20260507171540 | 67 | 275 | 3.0 | 9.0 | 0.00 | 0.00 | 0.00 | 46 | 1017.8 |
| 20260507170031 | 66 | 163 | 3.0 | 13.0 | 0.00 | 0.00 | 0.00 | 48 | 1018.1 |
| 20260507164527 | 66 | 274 | 2.0 | 10.0 | 0.00 | 0.00 | 0.00 | 50 | 1018.3 |
| 20260507163025 | 65 | 243 | 4.0 | 11.0 | 0.00 | 0.00 | 0.00 | 51 | 1018.6 |
| 20260507161524 | 64 | 261 | 3.0 | 12.0 | 0.00 | 0.00 | 0.00 | 49 | 1018.7 |
| 20260507160025 | 64 | 263 | 2.0 | 7.0 | 0.00 | 0.00 | 0.00 | 49 | 1018.8 |
| 20260507154520 | 63 | 231 | 2.0 | 11.0 | 0.00 | 0.00 | 0.00 | 50 | 1019.0 |
| 20260507153016 | 62 | 227 | 4.0 | 9.0 | 0.00 | 0.00 | 0.00 | 51 | 1019.1 |
| 20260507151515 | 61 | 169 | 4.0 | 10.0 | 0.00 | 0.00 | 0.00 | 52 | 1019.4 |
| 20260507150014 | 61 | 238 | 3.0 | 7.0 | 0.00 | 0.00 | 0.00 | 53 | 1019.5 |
| 20260507144515 | 60 | 213 | 2.0 | 12.0 | 0.00 | 0.00 | 0.00 | 54 | 1019.7 |
| 20260507143009 | 60 | 178 | 2.0 | 7.0 | 0.00 | 0.00 | 0.00 | 54 | 1019.9 |
| 20260507141504 | 58 | 245 | 1.0 | 6.0 | 0.00 | 0.00 | 0.00 | 58 | 1019.9 |
| 20260507134557 | 55 | 360 | 1.0 | 4.0 | 0.00 | 0.00 | 0.00 | 66 | 1020.1 |
| 20260507133053 | 53 | 30 | 1.0 | 4.0 | 0.00 | 0.00 | 0.00 | 69 | 1020.3 |
| 20260507131548 | 51 | 30 | 1.0 | 4.0 | 0.00 | 0.00 | 0.00 | 73 | 1020.2 |
| 20260507130044 | 49 | 11 | 0.0 | 2.0 | 0.00 | 0.00 | 0.00 | 78 | 1020.0 |
| 20260507124540 | 47 | 15 | 0.0 | 0.0 | 0.00 | 0.00 | 0.00 | 80 | 1019.9 |
| 20260507123040 | 46 | 13 | 0.0 | 2.0 | 0.00 | 0.00 | 0.00 | 80 | 1019.8 |
| 20260507121538 | 46 | 54 | 0.0 | 1.0 | 0.00 | 0.00 | 0.00 | 80 | 1019.7 |
| 20260507120038 | 46 | 54 | 0.0 | 2.0 | 0.00 | 0.00 | 0.00 | 80 | 1019.4 |
| 20260507114536 | 46 | 54 | 0.0 | 1.0 | 0.00 | 0.00 | 0.00 | 80 | 1019.2 |
| 20260507113033 | 46 | 54 | 0.0 | 0.0 | 0.00 | 0.00 | 0.00 | 80 | 1019.2 |
| 20260507111540 | 46 | 54 | 0.0 | 0.0 | 0.00 | 0.00 | 0.00 | 80 | 1019.2 |
| 20260507110027 | 46 | 54 | 0.0 | 1.0 | 0.00 | 0.00 | 0.00 | 80 | 1019.2 |
| 20260507104526 | 45 | 54 | 0.0 | 0.0 | 0.00 | 0.00 | 0.00 | 81 | 1019.2 |
| 20260507103025 | 45 | 54 | 0.0 | 0.0 | 0.00 | 0.00 | 0.00 | 82 | 1019.4 |
| 20260507101527 | 45 | 54 | 0.0 | 0.0 | 0.00 | 0.00 | 0.00 | 82 | 1019.1 |
| 20260507100032 | 45 | 54 | 0.0 | 0.0 | 0.00 | 0.00 | 0.00 | 82 | 1019.1 |
| 20260507094537 | 45 | 54 | 0.0 | 0.0 | 0.00 | 0.00 | 0.00 | 81 | 1018.9 |
| 20260507093024 | 45 | 54 | 0.0 | 0.0 | 0.00 | 0.00 | 0.00 | 82 | 1019.0 |
| 20260507091527 | 44 | 54 | 0.0 | 0.0 | 0.00 | 0.00 | 0.00 | 82 | 1019.2 |
| 20260507090027 | 44 | 54 | 0.0 | 2.0 | 0.00 | 0.00 | 0.00 | 82 | 1019.0 |
| 20260507084524 | 43 | 54 | 0.0 | 1.0 | 0.00 | 0.00 | 0.00 | 82 | 1018.7 |
| 20260507083017 | 44 | 54 | 0.0 | 2.0 | 0.00 | 0.00 | 0.00 | 82 | 1018.9 |
| 20260507081523 | 43 | 54 | 0.0 | 0.0 | 0.00 | 0.00 | 0.00 | 83 | 1019.0 |
| 20260507080015 | 44 | 54 | 0.0 | 0.0 | 0.00 | 0.00 | 0.00 | 82 | 1018.9 |
| 20260507074514 | 44 | 54 | 0.0 | 0.0 | 0.00 | 0.00 | 0.00 | 82 | 1018.8 |
| 20260507073010 | 44 | 54 | 0.0 | 0.0 | 0.00 | 0.00 | 0.00 | 81 | 1019.1 |
| 20260507071509 | 45 | 55 | 0.0 | 0.0 | 0.00 | 0.00 | 0.00 | 81 | 1019.1 |
| 20260507070011 | 45 | 56 | 0.0 | 2.0 | 0.00 | 0.00 | 0.00 | 80 | 1019.1 |
| 20260507064503 | 46 | 54 | 0.0 | 0.0 | 0.00 | 0.00 | 0.00 | 79 | 1018.8 |
| 20260507063002 | 46 | 54 | 0.0 | 0.0 | 0.00 | 0.00 | 0.00 | 79 | 1018.8 |
| 20260507061603 | 46 | 54 | 0.0 | 1.0 | 0.00 | 0.00 | 0.00 | 79 | 1019.3 |
| 20260507054557 | 47 | 54 | 0.0 | 0.0 | 0.00 | 0.00 | 0.00 | 78 | 1019.5 |
| 20260507053057 | 47 | 58 | 0.0 | 0.0 | 0.00 | 0.00 | 0.00 | 78 | 1019.4 |
| 20260507051551 | 47 | 57 | 0.0 | 0.0 | 0.00 | 0.00 | 0.00 | 77 | 1019.5 |
| 20260507050050 | 47 | 20 | 0.0 | 0.0 | 0.00 | 0.00 | 0.00 | 76 | 1019.3 |
| 20260507044557 | 48 | 19 | 0.0 | 0.0 | 0.00 | 0.00 | 0.00 | 74 | 1019.4 |
| 20260507043044 | 49 | 17 | 0.0 | 2.0 | 0.00 | 0.00 | 0.00 | 73 | 1019.2 |
| 20260507041543 | 49 | 15 | 0.0 | 3.0 | 0.00 | 0.00 | 0.00 | 74 | 1019.1 |
| 20260507040040 | 49 | 16 | 0.0 | 0.0 | 0.00 | 0.00 | 0.00 | 73 | 1017.9 |
| 20260507034543 | 49 | 17 | 0.0 | 0.0 | 0.00 | 0.00 | 0.00 | 72 | 1017.8 |
| 20260507033040 | 50 | 19 | 0.0 | 0.0 | 0.00 | 0.00 | 0.00 | 69 | 1018.2 |
| 20260507031538 | 51 | 20 | 0.0 | 0.0 | 0.00 | 0.00 | 0.00 | 67 | 1018.3 |
| 20260507030037 | 52 | 17 | 0.0 | 0.0 | 0.00 | 0.00 | 0.00 | 67 | 1017.9 |
| 20260507024539 | 53 | 15 | 0.0 | 0.0 | 0.00 | 0.00 | 0.00 | 65 | 1017.7 |
| 20260507023035 | 54 | 17 | 0.0 | 0.0 | 0.00 | 0.00 | 0.00 | 65 | 1017.5 |
| 20260507021533 | 55 | 15 | 0.0 | 0.0 | 0.00 | 0.00 | 0.00 | 63 | 1017.4 |
| 20260507020043 | 56 | 13 | 0.0 | 3.0 | 0.00 | 0.00 | 0.00 | 59 | 1017.2 |
| 20260507014535 | 57 | 54 | 1.0 | 3.0 | 0.00 | 0.00 | 0.00 | 57 | 1016.9 |
| 20260507013033 | 58 | 54 | 1.0 | 5.0 | 0.00 | 0.00 | 0.00 | 56 | 1016.8 |
| 20260507011532 | 59 | 61 | 1.0 | 5.0 | 0.00 | 0.00 | 0.00 | 55 | 1016.5 |
| 20260507010032 | 60 | 63 | 2.0 | 5.0 | 0.00 | 0.00 | 0.00 | 53 | 1016.4 |
| 20260507004533 | 60 | 62 | 1.0 | 4.0 | 0.00 | 0.00 | 0.00 | 54 | 1016.4 |
| 20260507003032 | 61 | 360 | 1.0 | 5.0 | 0.00 | 0.00 | 0.00 | 54 | 1016.4 |
| 20260507001536 | 63 | 59 | 2.0 | 7.0 | 0.00 | 0.00 | 0.00 | 52 | 1016.3 |
| 20260507000029 | 62 | 62 | 1.0 | 6.0 | 0.00 | 0.00 | 0.00 | 51 | 1016.2 |
| 20260506234527 | 64 | 37 | 2.0 | 9.0 | 0.00 | 0.00 | 0.00 | 51 | 1016.0 |
| 20260506233026 | 64 | 38 | 4.0 | 12.0 | 0.00 | 0.00 | 0.00 | 48 | 1015.9 |
| 20260506231528 | 64 | 61 | 3.0 | 10.0 | 0.00 | 0.00 | 0.00 | 49 | 1015.8 |
| 20260506230026 | 65 | 46 | 0.0 | 11.0 | 0.00 | 0.00 | 0.00 | 50 | 1015.5 |
| 20260506224524 | 65 | 47 | 1.0 | 9.0 | 0.00 | 0.00 | 0.00 | 51 | 1015.5 |
| 20260506223023 | 65 | 70 | 2.0 | 10.0 | 0.00 | 0.00 | 0.00 | 50 | 1015.3 |
| 20260506221522 | 64 | 63 | 5.0 | 10.0 | 0.00 | 0.00 | 0.00 | 48 | 1015.1 |
| 20260506220023 | 64 | 19 | 3.0 | 9.0 | 0.00 | 0.00 | 0.00 | 49 | 1015.1 |
| 20260506214520 | 64 | 52 | 2.0 | 10.0 | 0.00 | 0.00 | 0.00 | 51 | 1015.2 |
| 20260506213020 | 64 | 55 | 2.0 | 11.0 | 0.00 | 0.00 | 0.00 | 51 | 1015.3 |
| 20260506211517 | 64 | 43 | 5.0 | 10.0 | 0.00 | 0.00 | 0.00 | 52 | 1015.6 |
| 20260506210021 | 63 | 24 | 4.0 | 9.0 | 0.00 | 0.00 | 0.00 | 52 | 1015.7 |
| 20260506204515 | 63 | 38 | 4.0 | 11.0 | 0.00 | 0.00 | 0.00 | 52 | 1015.9 |
| 20260506203012 | 64 | 55 | 2.0 | 10.0 | 0.00 | 0.00 | 0.00 | 53 | 1016.0 |
| 20260506201510 | 63 | 111 | 2.0 | 10.0 | 0.00 | 0.00 | 0.00 | 59 | 1016.2 |
| 20260506200009 | 62 | 59 | 5.0 | 10.0 | 0.00 | 0.00 | 0.00 | 56 | 1016.3 |
| 20260506194506 | 61 | 11 | 4.0 | 9.0 | 0.00 | 0.00 | 0.00 | 57 | 1016.4 |
| 20260506193007 | 60 | 55 | 2.0 | 8.0 | 0.00 | 0.00 | 0.00 | 58 | 1016.6 |
| 20260506191506 | 60 | 69 | 3.0 | 10.0 | 0.00 | 0.00 | 0.00 | 59 | 1016.7 |
| 20260506190005 | 59 | 26 | 5.0 | 10.0 | 0.00 | 0.00 | 0.00 | 57 | 1016.7 |